Powrót do katalogu

STARLINK-37603

AktywnyŁącznośćVLEO
NORAD 69846·PAYLOAD·🇺🇸 United States

Wystrzelony Jul 5, 2026 z Cape Canaveral Space Force Station

Loading…

Następne Przeloty (najbliższe 24 godziny)

TLE

ŚwieżeSource: CelesTrak SupGP

Epoka: Sep 14, 2026, 21:17 UTC

1 69846C 26154AD  26257.88729167 -.00006517  00000+0 -19265-3 0  2574
2 69846  53.1584 357.6297 0001173  80.8271 171.2916 15.34377434    17

Śledź STARLINK-37603 w czasie rzeczywistym z AllMySat

Download on the App Store